Track COSMOS 2522 (GLONASS) now! COSMOS 2522 (GLONASS) is classified as:
1 42939U 17055A 25182.11721489 .00000060 00000-0 00000-0 0 9992 2 42939 64.0780 203.8348 0010640 241.0025 118.9376 2.13101989 60495